Home > Time Zones > World Clock > Weather > Iran > Ahvaz > Past weeks

Flag for Iran Weather past 2 weeks in Ahvaz, Iran

Now
59 °F

Fog.


Feels Like: 59 °F
Forecast: 51 / 72 °F
Wind: No wind

Location: Ahwaz

Current Time: Jan 31, 2015 at 9:16:20 AM

Latest Report: Jan 31, 2015 at 8:30 AM


Visibility: 2 mi

Pressure: 30.07 "Hg

Humidity: 88%

Dew point: 55 °F

Location of AhvazLocation

Historic Weather in Ahvaz — Graph

°F

Ahvaz temperature yesterday

Maximum temperature yesterday: 77 °F (at 1:00 PM)
Minimum temperature yesterday: 61 °F (at 7:30 AM)
Average temperature yesterday: 68 °F

Past Weeks' High & Low Weather Summary

 TemperatureHumidityPressure
High77 °F (Jan 29, 1:00 PM)94% (Jan 31, 5:30 AM)30.27 "Hg (Jan 31, 5:30 AM)
Low41 °F (Jan 20, 6:30 AM)22% (Jan 29, 2:30 PM)29.89 "Hg (Jan 29, 4:30 AM)
Average60 °F58%30.08 "Hg
* Reported Jan 16 7:30 AM — Jan 31 7:55 AM, Ahvaz, Weather by CustomWeather, © 2014

Note: Actual official high and low records may vary slightly from our data, if they occured in-between our weather recording intervals... More about our weather records

Advertising

Ahvaz weather history for previous 24 hours

 ConditionsComfort  
Time TempWeatherWind HumidityBarometerVisibility
7:55 AM
Jan 31
55 °FFog.No wind94%30.07 "Hg2 mi
7:00 AM55 °FFog.No wind94%30.04 "Hg2 mi
6:30 AM55 °FFog.2 mph94%30.04 "Hg2 mi
5:30 AM55 °FFog.2 mph94%30.01 "Hg2 mi
3:30 AM59 °FFog.No wind88%30.01 "Hg2 mi
12:30 AM63 °FFog.5 mph83%29.98 "Hg3 mi
12:00 AM63 °FClear.5 mph77%29.98 "Hg4 mi
11:30 PM
Jan 30
63 °FClear.2 mph77%29.98 "Hg4 mi
11:00 PM64 °FClear.5 mph73%29.98 "Hg4 mi
10:30 PM64 °FClear.7 mph73%29.98 "Hg4 mi
10:00 PM66 °FClear.9 mph68%29.98 "Hg4 mi
9:30 PM66 °FClear.7 mph68%29.95 "Hg4 mi
9:00 PM66 °FClear.7 mph68%29.95 "Hg4 mi
8:30 PM66 °FClear.7 mph68%29.95 "Hg3 mi
8:00 PM68 °FDuststorm.7 mph64%29.95 "Hg2 mi
7:30 PM68 °FDuststorm.7 mph64%29.92 "Hg1 mi
7:00 PM70 °FClear.7 mph57%29.92 "Hg1 mi
6:30 PM70 °FClear.12 mph57%29.89 "Hg1 mi
6:00 PM72 °FSunny.16 mph50%29.89 "Hg1 mi
5:30 PM72 °FDense fog.23 mph41%29.89 "Hg1 mi
5:00 PM73 °FDense fog.21 mph36%29.89 "Hg1 mi
4:30 PM73 °FDense fog.21 mph36%29.89 "Hg0 mi
4:00 PM75 °FDense fog.21 mph34%29.89 "Hg0 mi
3:30 PM75 °FDense fog.18 mph34%29.89 "Hg0 mi
3:00 PM75 °FDense fog.21 mph34%29.89 "Hg0 mi
2:30 PM77 °FDense fog.21 mph32%29.92 "Hg0 mi
2:00 PM77 °FDense fog.21 mph32%29.92 "Hg0 mi
1:30 PM77 °FDense fog.14 mph32%29.92 "Hg1 mi
1:00 PM77 °FScattered clouds.14 mph32%29.98 "Hg2 mi
12:30 PM73 °FScattered clouds.9 mph36%29.98 "Hg4 mi
12:00 PM72 °FBroken clouds.7 mph44%30.01 "Hg4 mi
11:30 AM70 °FBroken clouds.5 mph46%30.01 "Hg4 mi
11:00 AM70 °FBroken clouds.5 mph43%30.01 "Hg4 mi
10:30 AM70 °FBroken clouds.5 mph43%30.01 "Hg4 mi
10:00 AM68 °FBroken clouds.5 mph49%30.04 "Hg4 mi
9:30 AM64 °FBroken clouds.No wind56%30.04 "Hg4 mi
9:00 AM64 °FBroken clouds.No wind56%30.01 "Hg4 mi
Weather by CustomWeather, © 2014

See weather overviewHow to use our weather pages